Biloxi, MS

11:42 PM CST on February 10, 2016 (GMT -0600)
Keesler Air Force Base

Weather History for KBIX - October, 2011

Change the Weather History Date:

Wednesday, October 26, 2011

  Actual Average Record
Temperature  
Mean Temperature 66 °F -  
Max Temperature 79 °F 76 °F 86 °F (1978)
Min Temperature 55 °F 55 °F 40 °F (1955)
Cooling Degree Days 2    
Growing Degree Days 16 (Base 50)    
Moisture  
Dew Point 59 °F    
Average Humidity 84    
Maximum Humidity 100    
Minimum Humidity 43    
Precipitation  
Precipitation 0.00 in - - ()
Sea Level Pressure  
Sea Level Pressure 30.05 in    
Wind  
Wind Speed 2 mph (SE)    
Max Wind Speed 9 mph    
Max Gust Speed -    
Visibility 7 miles    
Events      
Averages and records for this station are not official NWS values.
T = Trace of Precipitation, MM = Missing Value Source: NWS Daily Summary

Daily Weather History Graph

Daily Weather History Graph

Search for Another Location

Airport or City:

Trip Planner

Search our weather history database for the weather conditions in past years. The results will help you decide how hot, cold, wet, or windy it might be!

Date:

Astronomy

Oct. 26, 2011 Rise Set
Actual Time 7:05 AM CDT 6:13 PM CDT
Civil Twilight 6:40 AM CDT 6:38 PM CDT
Nautical Twilight 6:12 AM CDT 7:06 PM CDT
Astronomical Twilight 5:44 AM CDT 7:34 PM CDT
Moon 6:49 AM CDT (10/26) 6:01 PM CDT (10/26)
Length of Visible Light 11h 57m
Length of Day
11h 08m
Waning Crescent, 0% of the Moon is Illuminated
Oct 26
Waning Crescent
Oct 26
New
Nov 2
First Quarter
Nov 10
Full
Nov 18
Last Quarter

Hourly Weather History & Observations

Time (CDT) Temp. Dew Point Humidity Pressure Visibility Wind Dir Wind Speed Gust Speed Precip Events Conditions
12:55 AM 63.3 °F 61.3 °F 93% 30.11 in 10.0 mi Calm Calm - N/A   Clear
1:55 AM 61.5 °F 60.8 °F 97% 30.10 in 10.0 mi Calm Calm - N/A   Clear
2:55 AM 60.8 °F 59.7 °F 96% 30.08 in 10.0 mi Calm Calm - N/A   Clear
3:55 AM 59.0 °F 59.0 °F 100% 30.07 in 4.0 mi Calm Calm - N/A   Clear
4:11 AM 59.0 °F 59.0 °F 100% 30.06 in 2.5 mi Calm Calm - N/A   Clear
4:12 AM 59.0 °F 59.0 °F 100% 30.06 in 1.5 mi Calm Calm - N/A   Clear
4:13 AM 59.0 °F 59.0 °F 100% 30.06 in 1.2 mi Calm Calm - N/A   Clear
4:14 AM 59.0 °F 59.0 °F 100% 30.06 in 1.0 mi Calm Calm - N/A   Clear
4:21 AM 59.0 °F 59.0 °F 100% 30.06 in 0.8 mi Calm Calm - N/A   Clear
4:33 AM 59.0 °F 59.0 °F 100% 30.06 in 1.0 mi Calm Calm - N/A   Clear
4:34 AM 59.0 °F 59.0 °F 100% 30.06 in 1.2 mi Calm Calm - N/A   Clear
4:39 AM 59.0 °F 59.0 °F 100% 30.06 in 1.5 mi Calm Calm - N/A   Clear
4:40 AM 59.0 °F 59.0 °F 100% 30.06 in 2.0 mi Calm Calm - N/A   Clear
4:41 AM 59.0 °F 59.0 °F 100% 30.06 in 1.8 mi Calm Calm - N/A   Clear
4:42 AM 59.0 °F 59.0 °F 100% 30.06 in 1.5 mi Calm Calm - N/A   Clear
4:51 AM 57.2 °F 57.2 °F 100% 30.06 in 2.5 mi Calm Calm - N/A   Clear
4:52 AM 57.2 °F 57.2 °F 100% 30.06 in 4.0 mi Calm Calm - N/A   Clear
4:55 AM 57.9 °F 57.9 °F 100% 30.06 in 6.0 mi Calm Calm - N/A   Clear
5:55 AM 55.8 °F 55.6 °F 99% 30.08 in 10.0 mi NE 3.5 mph - N/A   Clear
6:55 AM 55.9 °F 55.8 °F 99% 30.09 in 10.0 mi NE 3.5 mph - N/A   Clear
7:55 AM 58.6 °F 58.1 °F 98% 30.10 in 10.0 mi East 4.6 mph - N/A   Clear
8:55 AM 65.5 °F 58.8 °F 79% 30.10 in 10.0 mi ENE 5.8 mph - N/A   Clear
9:55 AM 71.2 °F 58.8 °F 65% 30.11 in 10.0 mi East 8.1 mph - N/A   Clear
10:55 AM 75.4 °F 58.1 °F 55% 30.10 in 10.0 mi East 6.9 mph - N/A   Clear
11:55 AM 77.9 °F 56.3 °F 47% 30.09 in 10.0 mi SSE 9.2 mph - N/A   Clear
12:55 PM 78.4 °F 54.0 °F 43% 30.07 in 10.0 mi SE 9.2 mph - N/A   Scattered Clouds
1:55 PM 78.4 °F 54.5 °F 43% 30.04 in 10.0 mi SSE 8.1 mph - N/A   Clear
2:55 PM 77.7 °F 54.5 °F 45% 30.01 in 10.0 mi South 9.2 mph - N/A   Clear
3:55 PM 77.0 °F 54.9 °F 46% 29.99 in 10.0 mi South 8.1 mph - N/A   Clear
4:55 PM 75.4 °F 56.1 °F 51% 29.99 in 10.0 mi South 6.9 mph - N/A   Clear
5:55 PM 72.7 °F 58.1 °F 60% 29.98 in 10.0 mi South 6.9 mph - N/A   Clear
6:55 PM 70.2 °F 63.5 °F 79% 29.97 in 10.0 mi SSE 5.8 mph - N/A   Clear
7:55 PM 70.0 °F 61.2 °F 73% 29.98 in 10.0 mi South 5.8 mph - N/A   Clear
8:55 PM 69.6 °F 61.5 °F 75% 29.99 in 10.0 mi South 3.5 mph - N/A   Clear
9:55 PM 69.4 °F 62.2 °F 78% 29.99 in 10.0 mi South 4.6 mph - N/A   Clear
10:55 PM 66.0 °F 64.2 °F 94% 29.99 in 10.0 mi Calm Calm - N/A   Clear
11:55 PM 63.5 °F 62.6 °F 97% 29.98 in 10.0 mi Calm Calm - N/A   Clear